Date String (YYYY-MM-DD hh:mm:ss) UTC,Instrument flags,Ambient pressure (hPa),Sample flow (lpm),Bypass flow (lpm),Sample temperature (°C),Ambient temperature (°C),ASC tube jacket temperature (°C),LED temperature (°C),Box temperature (°C),Sample RH (%),Span deviation,Mass concentration (μg/m³),Mass concentration (μg/m³),Mass concentration (μg/m³)
DateTimeUTC,F1_M11,P_M11,Q1_M11,Q2_M11,T1_M11,T2_M11,T3_M11,T4_M11,T5_M11,U1_M11,ZSPAN_M11,X0_M11,X2_M11,X1_M11
2022-11-26 05:00:00,,0826.1,4.99,0.00,24.8,23.3,00.0,33.9,26.5,11.7,0000.0,0001.22,0000.84,0000.68
2022-11-26 05:01:00,,0826.1,5.00,0.00,24.9,23.3,00.0,33.9,26.6,11.6,0000.0,0001.25,0000.85,0000.69
2022-11-26 05:02:00,,0826.2,5.00,0.00,24.8,23.3,00.0,33.9,26.5,11.6,0000.0,0001.38,0000.89,0000.70
2022-11-26 05:03:00,,0826.1,5.00,0.00,24.8,23.3,00.0,33.9,26.5,11.6,0000.0,0001.49,0000.92,0000.70
2022-11-26 05:04:00,,0826.0,5.00,0.00,24.8,23.3,00.0,33.9,26.6,11.6,0000.0,0001.45,0000.91,0000.70
2022-11-26 05:05:00,,0826.0,5.00,0.00,24.8,23.3,00.0,33.9,26.5,11.7,0000.0,0001.47,0000.92,0000.70
2022-11-26 05:06:00,,0826.1,5.00,0.00,24.8,23.3,00.0,33.9,26.5,11.6,0000.0,0001.41,0000.89,0000.70
2022-11-26 05:07:00,,0826.0,4.99,0.00,24.8,23.3,00.0,33.9,26.6,11.9,0000.0,0001.38,0000.87,0000.70
2022-11-26 05:08:00,,0826.0,4.99,0.00,24.8,23.2,00.0,33.9,26.7,12.3,0000.0,0001.40,0000.86,0000.69
2022-11-26 05:09:00,,0826.0,5.01,0.00,24.8,23.2,00.0,33.9,26.7,12.2,0000.0,0001.41,0000.85,0000.67
2022-11-26 05:10:00,,0826.0,5.01,0.00,24.8,23.1,00.0,33.9,26.6,11.9,0000.0,0001.48,0000.87,0000.68
2022-11-26 05:11:00,,0826.0,5.00,0.00,24.8,23.1,00.0,33.8,26.6,11.9,0000.0,0001.52,0000.86,0000.69
2022-11-26 05:12:00,,0826.0,4.99,0.00,24.8,23.2,00.0,33.8,26.5,11.8,0000.0,0001.71,0000.93,0000.71
2022-11-26 05:13:00,,0825.9,5.02,0.00,24.8,23.2,00.0,33.8,26.5,11.9,0000.0,0001.65,0000.91,0000.71
2022-11-26 05:14:00,,0825.9,5.00,0.00,24.7,23.2,00.0,33.8,26.4,11.8,0000.0,0001.63,0000.88,0000.72
2022-11-26 05:15:00,,0826.0,5.00,0.00,24.7,23.2,00.0,33.8,26.4,11.8,0000.0,0002.27,0000.90,0000.73
2022-11-26 05:16:00,,0826.0,5.00,0.00,24.7,23.2,00.0,33.8,26.4,11.8,0000.0,0002.32,0000.92,0000.75
2022-11-26 05:17:00,,0825.9,5.00,0.00,24.7,23.2,00.0,33.8,26.4,11.7,0000.0,0002.43,0000.95,0000.77
2022-11-26 05:18:00,,0825.9,5.00,0.00,24.7,23.2,00.0,33.7,26.4,11.7,0000.0,0002.42,0000.95,0000.78
2022-11-26 05:19:00,,0825.8,4.99,0.00,24.7,23.2,00.0,33.7,26.3,11.8,0000.0,0002.41,0000.97,0000.79
2022-11-26 05:20:00,,0825.8,5.01,0.00,24.7,23.2,00.0,33.7,26.4,11.8,0000.0,0002.47,0001.01,0000.81
2022-11-26 05:21:00,,0825.9,5.00,0.00,24.7,23.1,00.0,33.7,26.3,11.8,0000.0,0002.58,0001.03,0000.81
2022-11-26 05:22:00,,0825.9,5.00,0.00,24.7,23.1,00.0,33.7,26.3,11.9,0000.0,0002.64,0001.04,0000.82
2022-11-26 05:23:00,,0826.0,5.00,0.00,24.6,23.1,00.0,33.7,26.3,11.9,0000.0,0002.48,0000.99,0000.82
2022-11-26 05:24:00,,0825.9,5.00,0.00,24.6,23.1,00.0,33.7,26.2,11.9,0000.0,0002.49,0001.00,0000.83
2022-11-26 05:25:00,,0826.3,4.99,0.00,24.6,23.0,00.0,33.7,26.2,11.9,0000.0,0002.42,0001.02,0000.84
2022-11-26 05:26:00,,0825.9,5.00,0.00,24.6,23.0,00.0,33.7,26.2,12.0,0000.0,0001.73,0001.00,0000.84
2022-11-26 05:27:00,,0825.7,5.00,0.00,24.6,23.0,00.0,33.7,26.2,12.0,0000.0,0001.91,0001.01,0000.84
2022-11-26 05:28:00,,0825.7,5.01,0.00,24.6,23.0,00.0,33.6,26.2,12.0,0000.0,0002.35,0001.06,0000.85
2022-11-26 05:29:00,,0825.7,4.99,0.00,24.6,23.0,00.0,33.6,26.1,11.9,0000.0,0002.36,0001.06,0000.85
2022-11-26 05:30:00,,0825.8,5.00,0.00,24.6,23.0,00.0,33.6,26.2,11.9,0000.0,0002.42,0001.10,0000.87
2022-11-26 05:31:00,,0825.7,5.00,0.00,24.5,23.0,00.0,33.6,26.1,11.9,0000.0,0002.39,0001.09,0000.88
2022-11-26 05:32:00,,0825.6,5.00,0.00,24.5,22.9,00.0,33.6,26.1,12.0,0000.0,0002.44,0001.05,0000.88
2022-11-26 05:33:00,,0825.6,5.00,0.00,24.5,22.9,00.0,33.6,26.1,11.9,0000.0,0003.33,0001.03,0000.87
2022-11-26 05:34:00,,0825.6,5.00,0.00,24.5,22.9,00.0,33.6,26.2,12.0,0000.0,0003.38,0001.05,0000.87
2022-11-26 05:35:00,,0825.6,5.00,0.00,24.5,22.9,00.0,33.6,26.1,12.0,0000.0,0003.44,0001.06,0000.86
2022-11-26 05:36:00,,0825.5,5.00,0.00,24.5,22.9,00.0,33.6,26.1,11.9,0000.0,0003.55,0001.10,0000.86
2022-11-26 05:37:00,,0825.5,4.99,0.00,24.5,22.9,00.0,33.5,26.1,11.9,0000.0,0003.66,0001.13,0000.86
2022-11-26 05:38:00,,0825.5,5.01,0.00,24.5,22.8,00.0,33.5,26.1,12.1,0000.0,0003.42,0001.10,0000.84
2022-11-26 05:39:00,,0825.5,5.01,0.00,24.4,22.8,00.0,33.5,26.1,12.2,0000.0,0002.93,0001.05,0000.81
2022-11-26 05:40:00,,0825.5,5.00,0.00,24.4,22.8,00.0,33.5,26.0,12.2,0000.0,0002.92,0001.04,0000.80
2022-11-26 05:41:00,,0825.5,5.00,0.00,24.4,22.8,00.0,33.5,26.0,12.1,0000.0,0002.83,0001.00,0000.78
2022-11-26 05:42:00,,0825.5,4.98,0.00,24.4,22.8,00.0,33.5,26.0,12.1,0000.0,0002.79,0000.98,0000.76
2022-11-26 05:43:00,,0825.5,5.02,0.00,24.4,22.8,00.0,33.5,26.0,12.0,0000.0,0002.81,0000.99,0000.75
2022-11-26 05:44:00,,0825.5,4.99,0.00,24.4,22.8,00.0,33.5,26.0,11.9,0000.0,0001.54,0000.99,0000.73
2022-11-26 05:45:00,,0825.5,5.00,0.00,24.4,22.8,00.0,33.4,26.0,12.0,0000.0,0001.57,0000.99,0000.71
2022-11-26 05:46:00,,0825.5,5.00,0.00,24.4,22.8,00.0,33.4,26.0,12.1,0000.0,0001.54,0000.96,0000.70
2022-11-26 05:47:00,,0825.5,5.00,0.00,24.4,22.7,00.0,33.4,25.9,12.5,0000.0,0002.37,0000.95,0000.68
2022-11-26 05:48:00,,0825.5,5.00,0.00,24.3,22.8,00.0,33.4,26.0,12.7,0000.0,0002.33,0000.91,0000.65
2022-11-26 05:49:00,,0825.4,4.99,0.00,24.3,22.8,00.0,33.4,26.0,12.8,0000.0,0002.35,0000.90,0000.64
2022-11-26 05:50:00,,0825.5,5.01,0.00,24.3,22.8,00.0,33.4,26.0,12.8,0000.0,0002.36,0000.89,0000.64
2022-11-26 05:51:00,,0825.4,5.01,0.00,24.3,22.7,00.0,33.4,26.0,12.7,0000.0,0002.35,0000.87,0000.62
2022-11-26 05:52:00,,0825.4,5.00,0.00,24.3,22.7,00.0,33.4,26.0,12.5,0000.0,0002.38,0000.88,0000.60
2022-11-26 05:53:00,,0825.4,5.00,0.00,24.3,22.7,00.0,33.3,25.9,12.2,0000.0,0002.36,0000.86,0000.58
2022-11-26 05:54:00,,0825.4,4.99,0.00,24.3,22.7,00.0,33.3,25.9,12.1,0000.0,0002.31,0000.83,0000.56
2022-11-26 05:55:00,,0825.4,5.00,0.00,24.3,22.7,00.0,33.3,25.9,12.0,0000.0,0002.23,0000.79,0000.55
2022-11-26 05:56:00,,0825.4,4.99,0.00,24.3,22.7,00.0,33.3,25.9,12.0,0000.0,0002.16,0000.77,0000.54
2022-11-26 05:57:00,,0825.4,5.00,0.00,24.3,22.7,00.0,33.3,25.9,12.0,0000.0,0002.05,0000.72,0000.53
2022-11-26 05:58:00,,0825.3,5.00,0.00,24.2,22.7,00.0,33.3,25.9,11.9,0000.0,0001.35,0000.70,0000.52
2022-11-26 05:59:00,,0825.3,5.02,0.00,24.2,22.6,00.0,33.3,25.9,11.9,0000.0,0001.13,0000.69,0000.51
